^^
Datos históricos de la estación: Murcia-Puente Tocinos
Diario Informe para Enero 25, 2019 Unidades:  Métrico    Inglés   Ambas
Diario Semanal Mensual Anual Configurable
  Máximo: Mínimo: Media:
Temperatura: 20.1 °C 13.9 °C 17 °C
Punto de rocio: 5.4 °C 3.9 °C 4.7 °C
Humedad: 54% 36% 45%
Velocidad viento: 27.4km/h 3.2km/h 14km/h
Racha viento: 48.3km/h - -
Viento- - West
Presión: 1015.6 hPa 1011.1 hPa -
Precipitación: 0.0 mm    
Historical Graphs
 
 
Tabla de datos para Enero 25, 2019
Hora Temperatura Punto de rocio Presión Viento Velocidad viento Racha viento Humedad Intensidad lluvia(por hora) Nubes
00:00 15.7 °C 5.0 °C 1011.3 hPa West 8.0 km/h 9.7 km/h 49% 0.0 mm CLR
00:05 15.6 °C 5.2 °C 1011.5 hPa WSW 8.4 km/h 9.3 km/h 50% 0.0 mm CLR
00:10 15.6 °C 4.9 °C 1011.5 hPa WNW 6.4 km/h 11.1 km/h 49% 0.0 mm CLR
00:15 15.7 °C 5.0 °C 1011.5 hPa WNW 6.4 km/h 13.0 km/h 49% 0.0 mm CLR
00:20 15.8 °C 4.8 °C 1011.6 hPa West 8.0 km/h 12.9 km/h 48% 0.0 mm CLR
00:25 15.8 °C 4.8 °C 1011.6 hPa West 8.4 km/h 18.5 km/h 48% 0.0 mm CLR
00:30 15.8 °C 4.8 °C 1011.6 hPa West 10.0 km/h 20.4 km/h 48% 0.0 mm CLR
00:35 15.7 °C 4.7 °C 1011.5 hPa NNW 10.0 km/h 25.9 km/h 48% 0.0 mm CLR
00:40 15.8 °C 4.8 °C 1011.5 hPa WNW 12.9 km/h 25.7 km/h 48% 0.0 mm CLR
00:45 15.9 °C 4.6 °C 1011.5 hPa NW 12.2 km/h 18.5 km/h 47% 0.0 mm CLR
00:50 15.8 °C 4.6 °C 1011.6 hPa WNW 12.9 km/h 22.5 km/h 47% 0.0 mm CLR
00:55 15.8 °C 4.5 °C 1011.6 hPa WNW 13.0 km/h 16.7 km/h 47% 0.0 mm CLR
01:00 15.7 °C 4.8 °C 1011.6 hPa NW 11.3 km/h 16.1 km/h 48% 0.0 mm CLR
01:05 15.5 °C 4.5 °C 1011.7 hPa North 11.9 km/h 16.7 km/h 48% 0.0 mm CLR
01:10 15.4 °C 4.7 °C 1011.7 hPa WNW 11.1 km/h 14.8 km/h 49% 0.0 mm CLR
01:15 15.3 °C 4.6 °C 1011.7 hPa NW 11.1 km/h 14.8 km/h 49% 0.0 mm CLR
01:20 15.2 °C 4.6 °C 1011.3 hPa WNW 12.2 km/h 18.5 km/h 49% 0.0 mm CLR
01:25 15.3 °C 4.6 °C 1011.3 hPa WNW 12.2 km/h 22.2 km/h 49% 0.0 mm CLR
01:30 15.3 °C 4.7 °C 1011.3 hPa WNW 16.1 km/h 25.7 km/h 49% 0.0 mm CLR
01:35 15.3 °C 4.6 °C 1011.1 hPa West 16.1 km/h 22.2 km/h 49% 0.0 mm CLR
01:40 15.7 °C 4.4 °C 1011.1 hPa West 16.4 km/h 29.6 km/h 47% 0.0 mm CLR
01:45 15.8 °C 4.5 °C 1011.1 hPa WNW 16.4 km/h 29.1 km/h 47% 0.0 mm CLR
01:50 15.9 °C 4.6 °C 1011.2 hPa WNW 18.0 km/h 24.1 km/h 47% 0.0 mm CLR
01:55 16.0 °C 4.7 °C 1011.2 hPa NW 18.0 km/h 22.2 km/h 47% 0.0 mm CLR
02:00 15.9 °C 4.6 °C 1011.2 hPa WNW 16.1 km/h 24.1 km/h 47% 0.0 mm CLR
02:05 15.9 °C 4.6 °C 1011.4 hPa WNW 16.1 km/h 16.7 km/h 47% 0.0 mm CLR
02:10 15.9 °C 4.6 °C 1011.4 hPa WNW 14.5 km/h 25.7 km/h 47% 0.0 mm CLR
02:15 16.0 °C 4.7 °C 1011.4 hPa NW 14.0 km/h 20.4 km/h 47% 0.0 mm CLR
02:20 15.9 °C 4.6 °C 1011.5 hPa WNW 14.8 km/h 16.7 km/h 47% 0.0 mm CLR
02:25 15.7 °C 4.7 °C 1011.5 hPa West 14.8 km/h 17.2 km/h 48% 0.0 mm CLR
02:30 15.6 °C 4.6 °C 1011.5 hPa WNW 12.9 km/h 22.5 km/h 48% 0.0 mm CLR
02:35 15.4 °C 4.7 °C 1011.7 hPa WNW 13.0 km/h 20.4 km/h 49% 0.0 mm CLR
02:40 15.4 °C 4.7 °C 1011.7 hPa NW 13.7 km/h 27.8 km/h 49% 0.0 mm CLR
02:45 15.4 °C 4.7 °C 1011.7 hPa WNW 13.7 km/h 14.8 km/h 49% 0.0 mm CLR
02:50 15.2 °C 4.6 °C 1011.7 hPa WSW 13.0 km/h 20.4 km/h 49% 0.0 mm CLR
02:55 15.1 °C 4.7 °C 1011.7 hPa NNW 13.0 km/h 14.8 km/h 50% 0.0 mm CLR
03:00 15.1 °C 4.7 °C 1011.7 hPa West 8.0 km/h 14.5 km/h 50% 0.0 mm CLR
03:05 14.9 °C 4.6 °C 1011.9 hPa ESE 8.4 km/h 8.7 km/h 50% 0.0 mm CLR
03:10 14.8 °C 4.8 °C 1011.9 hPa SSE 3.9 km/h 7.4 km/h 51% 0.0 mm CLR
03:15 14.4 °C 4.7 °C 1011.9 hPa SSE 3.9 km/h 9.3 km/h 52% 0.0 mm CLR
03:20 14.1 °C 4.7 °C 1012.1 hPa SSE 4.8 km/h 11.3 km/h 53% 0.0 mm CLR
03:25 14.0 °C 4.6 °C 1012.1 hPa SSE 5.8 km/h 9.3 km/h 53% 0.0 mm CLR
03:30 14.0 °C 4.6 °C 1012.1 hPa SSE 8.0 km/h 12.9 km/h 53% 0.0 mm CLR
03:35 14.0 °C 4.6 °C 1012.1 hPa SSW 6.9 km/h 9.3 km/h 53% 0.0 mm CLR
03:40 14.0 °C 4.6 °C 1012.1 hPa South 8.4 km/h 11.1 km/h 53% 0.0 mm CLR
03:45 14.1 °C 4.7 °C 1012.1 hPa SSE 8.4 km/h 7.6 km/h 53% 0.0 mm CLR
03:50 14.0 °C 4.6 °C 1012.1 hPa South 6.9 km/h 9.5 km/h 53% 0.0 mm CLR
03:55 13.9 °C 4.7 °C 1012.1 hPa SSW 6.9 km/h 10.0 km/h 54% 0.0 mm CLR
04:00 14.1 °C 4.9 °C 1012.1 hPa SSW 8.0 km/h 9.7 km/h 54% 0.0 mm CLR
04:05 14.2 °C 4.7 °C 1012.1 hPa West 7.6 km/h 13.0 km/h 53% 0.0 mm CLR
04:10 14.3 °C 4.8 °C 1012.1 hPa WNW 8.4 km/h 22.2 km/h 53% 0.0 mm CLR
04:15 14.4 °C 4.9 °C 1012.1 hPa WNW 8.4 km/h 18.5 km/h 53% 0.0 mm CLR
04:20 14.4 °C 4.9 °C 1012.0 hPa West 9.7 km/h 22.5 km/h 53% 0.0 mm CLR
04:25 14.3 °C 4.8 °C 1012.0 hPa West 10.0 km/h 13.0 km/h 53% 0.0 mm CLR
04:30 14.3 °C 4.8 °C 1012.0 hPa NW 10.0 km/h 16.7 km/h 53% 0.0 mm CLR
04:35 14.3 °C 4.8 °C 1012.0 hPa West 10.0 km/h 16.7 km/h 53% 0.0 mm CLR
04:40 14.4 °C 4.7 °C 1012.0 hPa West 11.9 km/h 14.8 km/h 52% 0.0 mm CLR
04:45 14.4 °C 4.9 °C 1012.0 hPa WSW 11.9 km/h 13.0 km/h 53% 0.0 mm CLR
04:50 14.4 °C 4.9 °C 1011.9 hPa WSW 10.3 km/h 13.0 km/h 53% 0.0 mm CLR
04:55 14.4 °C 4.9 °C 1011.9 hPa WSW 10.3 km/h 10.3 km/h 53% 0.0 mm CLR
05:00 14.4 °C 4.9 °C 1011.9 hPa West 9.7 km/h 27.4 km/h 53% 0.0 mm CLR
05:05 14.5 °C 4.8 °C 1011.9 hPa WSW 8.7 km/h 9.3 km/h 52% 0.0 mm CLR
05:10 14.4 °C 4.9 °C 1011.9 hPa SSW 8.7 km/h 7.4 km/h 53% 0.0 mm CLR
05:15 14.5 °C 4.8 °C 1011.9 hPa West 8.7 km/h 10.3 km/h 52% 0.0 mm CLR
05:20 14.6 °C 4.8 °C 1011.9 hPa SSW 6.4 km/h 7.4 km/h 52% 0.0 mm CLR
05:25 14.7 °C 4.9 °C 1011.9 hPa WSW 6.4 km/h 11.1 km/h 52% 0.0 mm CLR
05:30 14.7 °C 4.9 °C 1011.9 hPa SW 3.2 km/h 12.9 km/h 52% 0.0 mm CLR
05:35 14.7 °C 4.7 °C 1011.8 hPa SE 4.7 km/h 11.1 km/h 51% 0.0 mm CLR
05:40 14.7 °C 4.9 °C 1011.8 hPa SSE 6.9 km/h 8.4 km/h 52% 0.0 mm CLR
05:45 14.7 °C 4.9 °C 1011.8 hPa ESE 6.9 km/h 13.0 km/h 52% 0.0 mm CLR
05:50 14.7 °C 4.9 °C 1011.9 hPa SE 5.8 km/h 16.7 km/h 52% 0.0 mm CLR
05:55 14.8 °C 4.8 °C 1011.9 hPa ESE 5.8 km/h 13.0 km/h 51% 0.0 mm CLR
06:00 15.0 °C 4.7 °C 1011.9 hPa SSW 9.7 km/h 12.9 km/h 50% 0.0 mm CLR
06:05 15.1 °C 4.7 °C 1011.9 hPa WSW 8.7 km/h 13.7 km/h 50% 0.0 mm CLR
06:10 15.0 °C 4.7 °C 1011.9 hPa West 8.4 km/h 16.7 km/h 50% 0.0 mm CLR
06:15 15.2 °C 4.6 °C 1011.9 hPa NW 8.4 km/h 20.4 km/h 49% 0.0 mm CLR
06:20 15.1 °C 4.7 °C 1012.1 hPa NW 13.7 km/h 14.8 km/h 50% 0.0 mm CLR
06:25 15.0 °C 4.7 °C 1012.1 hPa WNW 13.7 km/h 16.4 km/h 50% 0.0 mm CLR
06:30 14.9 °C 4.6 °C 1012.1 hPa WNW 10.3 km/h 20.4 km/h 50% 0.0 mm CLR
06:35 15.0 °C 4.7 °C 1012.0 hPa WSW 10.3 km/h 24.1 km/h 50% 0.0 mm CLR
06:40 14.9 °C 4.6 °C 1012.0 hPa WNW 13.7 km/h 20.4 km/h 50% 0.0 mm CLR
06:45 15.0 °C 4.7 °C 1012.0 hPa West 13.7 km/h 16.7 km/h 50% 0.0 mm CLR
06:50 15.1 °C 4.7 °C 1012.0 hPa West 11.9 km/h 25.9 km/h 50% 0.0 mm CLR
06:55 15.1 °C 4.7 °C 1012.0 hPa SSW 11.9 km/h 22.5 km/h 50% 0.0 mm CLR
07:00 15.2 °C 4.8 °C 1012.0 hPa West 12.9 km/h 24.1 km/h 50% 0.0 mm CLR
07:05 15.2 °C 4.8 °C 1012.2 hPa WNW 13.0 km/h 18.5 km/h 50% 0.0 mm CLR
07:10 15.1 °C 4.7 °C 1012.2 hPa West 12.9 km/h 20.9 km/h 50% 0.0 mm CLR
07:15 15.0 °C 4.9 °C 1012.2 hPa NW 13.0 km/h 22.2 km/h 51% 0.0 mm CLR
07:20 14.9 °C 4.9 °C 1012.4 hPa WNW 12.9 km/h 25.7 km/h 51% 0.0 mm CLR
07:25 14.9 °C 4.8 °C 1012.4 hPa WSW 13.0 km/h 22.2 km/h 51% 0.0 mm CLR
07:30 15.0 °C 4.9 °C 1012.4 hPa WSW 15.6 km/h 27.8 km/h 51% 0.0 mm CLR
07:35 15.0 °C 4.9 °C 1012.6 hPa NW 15.6 km/h 31.5 km/h 51% 0.0 mm CLR
07:40 15.0 °C 4.9 °C 1012.6 hPa West 18.0 km/h 37.0 km/h 51% 0.0 mm CLR
07:45 15.0 °C 4.9 °C 1012.6 hPa WNW 18.0 km/h 29.6 km/h 51% 0.0 mm CLR
07:50 14.9 °C 4.8 °C 1012.6 hPa NW 17.2 km/h 27.8 km/h 51% 0.0 mm CLR
07:55 15.0 °C 4.9 °C 1012.6 hPa WNW 17.2 km/h 27.8 km/h 51% 0.0 mm CLR
08:00 15.0 °C 4.9 °C 1012.6 hPa WNW 19.3 km/h 27.4 km/h 51% 0.0 mm CLR
08:05 15.0 °C 4.9 °C 1012.7 hPa WNW 18.3 km/h 20.4 km/h 51% 0.0 mm CLR
08:10 14.8 °C 5.1 °C 1012.7 hPa WNW 15.6 km/h 25.9 km/h 52% 0.0 mm CLR
08:15 14.9 °C 5.1 °C 1012.7 hPa NW 15.6 km/h 24.1 km/h 52% 0.0 mm CLR
08:20 14.9 °C 4.8 °C 1012.9 hPa NW 17.2 km/h 33.3 km/h 51% 0.0 mm CLR
08:25 14.9 °C 4.8 °C 1012.9 hPa WNW 17.2 km/h 20.9 km/h 51% 0.0 mm CLR
08:30 14.9 °C 5.1 °C 1012.9 hPa WNW 16.1 km/h 27.4 km/h 52% 0.0 mm CLR
08:35 14.8 °C 5.1 °C 1013.0 hPa WNW 16.4 km/h 23.3 km/h 52% 0.0 mm CLR
08:40 14.8 °C 5.1 °C 1013.0 hPa WNW 16.1 km/h 20.4 km/h 52% 0.0 mm CLR
08:45 14.8 °C 5.1 °C 1013.0 hPa NW 16.1 km/h 16.7 km/h 52% 0.0 mm CLR
08:50 14.8 °C 5.1 °C 1013.3 hPa NW 12.2 km/h 26.2 km/h 52% 0.0 mm CLR
08:55 15.0 °C 4.9 °C 1013.3 hPa West 12.2 km/h 18.3 km/h 51% 0.0 mm CLR
09:00 15.1 °C 5.1 °C 1013.3 hPa WNW 12.9 km/h 22.5 km/h 51% 0.0 mm CLR
09:05 15.1 °C 5.1 °C 1013.4 hPa WNW 12.2 km/h 22.5 km/h 51% 0.0 mm CLR
09:10 15.1 °C 5.1 °C 1013.4 hPa NW 13.7 km/h 13.0 km/h 51% 0.0 mm CLR
09:15 15.2 °C 5.1 °C 1013.4 hPa West 13.7 km/h 16.7 km/h 51% 0.0 mm CLR
09:20 15.3 °C 5.2 °C 1013.6 hPa WNW 9.5 km/h 17.2 km/h 51% 0.0 mm CLR
09:25 15.3 °C 5.2 °C 1013.6 hPa West 9.5 km/h 16.7 km/h 51% 0.0 mm CLR
09:30 15.3 °C 5.2 °C 1013.6 hPa West 10.3 km/h 11.1 km/h 51% 0.0 mm CLR
09:35 15.4 °C 5.3 °C 1013.8 hPa West 10.3 km/h 14.8 km/h 51% 0.0 mm CLR
09:40 15.5 °C 5.4 °C 1013.8 hPa West 9.5 km/h 14.8 km/h 51% 0.0 mm CLR
09:45 15.7 °C 5.3 °C 1013.8 hPa West 9.5 km/h 13.0 km/h 50% 0.0 mm CLR
09:50 15.8 °C 5.1 °C 1013.9 hPa NW 11.1 km/h 22.2 km/h 49% 0.0 mm CLR
09:55 15.9 °C 5.2 °C 1013.9 hPa NW 11.1 km/h 19.8 km/h 49% 0.0 mm CLR
10:00 16.1 °C 5.4 °C 1013.9 hPa WNW 14.5 km/h 24.1 km/h 49% 0.0 mm CLR
10:05 16.1 °C 5.1 °C 1014.0 hPa WNW 14.0 km/h 27.4 km/h 48% 0.0 mm CLR
10:10 16.2 °C 5.4 °C 1014.0 hPa NW 16.1 km/h 24.1 km/h 49% 0.0 mm CLR
10:15 16.3 °C 5.3 °C 1014.0 hPa WNW 16.1 km/h 27.8 km/h 48% 0.0 mm CLR
10:20 16.4 °C 5.3 °C 1014.0 hPa West 17.2 km/h 27.8 km/h 48% 0.0 mm CLR
10:25 16.5 °C 5.2 °C 1014.0 hPa West 17.2 km/h 25.9 km/h 47% 0.0 mm CLR
10:30 16.6 °C 5.2 °C 1014.0 hPa WNW 16.1 km/h 27.4 km/h 47% 0.0 mm CLR
10:35 16.7 °C 5.3 °C 1014.1 hPa WNW 16.4 km/h 22.2 km/h 47% 0.0 mm CLR
10:40 16.8 °C 5.1 °C 1014.1 hPa WNW 14.5 km/h 40.2 km/h 46% 0.0 mm CLR
10:45 16.9 °C 5.2 °C 1014.1 hPa West 14.0 km/h 27.8 km/h 46% 0.0 mm CLR
10:50 16.9 °C 4.9 °C 1014.2 hPa West 18.3 km/h 33.3 km/h 45% 0.0 mm CLR
10:55 17.1 °C 5.1 °C 1014.2 hPa NW 18.3 km/h 30.6 km/h 45% 0.0 mm CLR
11:00 17.1 °C 5.1 °C 1014.2 hPa WNW 20.9 km/h 38.6 km/h 45% 0.0 mm CLR
11:05 17.3 °C 5.2 °C 1014.2 hPa NW 20.1 km/h 29.6 km/h 45% 0.0 mm CLR
11:10 17.4 °C 5.0 °C 1014.2 hPa WNW 19.3 km/h 24.1 km/h 44% 0.0 mm CLR
11:15 17.4 °C 5.0 °C 1014.2 hPa NW 18.0 km/h 27.8 km/h 44% 0.0 mm CLR
11:20 17.5 °C 5.1 °C 1014.3 hPa WNW 19.3 km/h 33.8 km/h 44% 0.0 mm CLR
11:25 17.6 °C 4.9 °C 1014.3 hPa NW 18.3 km/h 33.3 km/h 43% 0.0 mm CLR
11:30 17.6 °C 4.9 °C 1014.3 hPa West 21.7 km/h 35.2 km/h 43% 0.0 mm CLR
11:35 17.7 °C 4.9 °C 1014.3 hPa WNW 21.7 km/h 35.2 km/h 43% 0.0 mm CLR
11:40 17.8 °C 5.1 °C 1014.3 hPa WNW 24.5 km/h 24.1 km/h 43% 0.0 mm CLR
11:45 17.9 °C 4.8 °C 1014.3 hPa NW 24.5 km/h 38.9 km/h 42% 0.0 mm CLR
11:50 18.1 °C 4.6 °C 1014.1 hPa NW 21.7 km/h 44.4 km/h 41% 0.0 mm CLR
11:55 18.1 °C 4.6 °C 1014.1 hPa West 21.7 km/h 44.2 km/h 41% 0.0 mm CLR
12:00 18.2 °C 4.4 °C 1014.1 hPa WNW 27.4 km/h 48.3 km/h 40% 0.0 mm CLR
12:05 18.3 °C 4.4 °C 1014.1 hPa WNW 27.0 km/h 37.0 km/h 40% 0.0 mm CLR
12:10 18.4 °C 4.6 °C 1014.1 hPa WNW 27.0 km/h 29.6 km/h 40% 0.0 mm CLR
12:15 18.4 °C 4.6 °C 1014.1 hPa NW 27.0 km/h 40.7 km/h 40% 0.0 mm CLR
12:20 18.4 °C 4.6 °C 1014.1 hPa WNW 26.2 km/h 42.6 km/h 40% 0.0 mm CLR
12:25 18.6 °C 4.7 °C 1014.1 hPa NNW 26.2 km/h 29.6 km/h 40% 0.0 mm CLR
12:30 18.7 °C 4.4 °C 1014.1 hPa WNW 23.7 km/h 25.9 km/h 39% 0.0 mm CLR
12:35 18.7 °C 4.4 °C 1014.0 hPa NW 23.7 km/h 40.7 km/h 39% 0.0 mm CLR
12:40 18.8 °C 4.6 °C 1014.0 hPa WNW 22.5 km/h 41.8 km/h 39% 0.0 mm CLR
12:45 18.9 °C 4.6 °C 1014.0 hPa NW 22.0 km/h 48.1 km/h 39% 0.0 mm CLR
12:50 18.9 °C 4.6 °C 1013.8 hPa NW 23.3 km/h 30.9 km/h 39% 0.0 mm CLR
12:55 18.9 °C 4.3 °C 1013.8 hPa WNW 23.3 km/h 33.3 km/h 38% 0.0 mm CLR
13:00 19.1 °C 4.4 °C 1013.8 hPa WNW 22.5 km/h 35.4 km/h 38% 0.0 mm CLR
13:05 19.2 °C 4.2 °C 1013.6 hPa WNW 22.0 km/h 33.3 km/h 37% 0.0 mm CLR
13:10 19.3 °C 4.2 °C 1013.6 hPa WNW 20.9 km/h 35.4 km/h 37% 0.0 mm CLR
13:15 19.3 °C 4.2 °C 1013.6 hPa WNW 19.8 km/h 35.2 km/h 37% 0.0 mm CLR
13:20 19.4 °C 4.3 °C 1013.7 hPa NW 22.5 km/h 38.9 km/h 37% 0.0 mm FEW
13:25 19.4 °C 4.3 °C 1013.7 hPa NW 22.5 km/h 38.9 km/h 37% 0.0 mm FEW
13:30 19.5 °C 4.4 °C 1013.7 hPa WNW 22.0 km/h 29.6 km/h 37% 0.0 mm FEW
13:35 19.6 °C 4.5 °C 1013.6 hPa NNW 22.0 km/h 38.9 km/h 37% 0.0 mm FEW
13:40 19.5 °C 4.4 °C 1013.6 hPa West 22.5 km/h 40.7 km/h 37% 0.0 mm FEW
13:45 19.4 °C 4.3 °C 1013.6 hPa West 22.5 km/h 33.3 km/h 37% 0.0 mm FEW
13:50 19.4 °C 4.3 °C 1013.5 hPa WNW 25.7 km/h 46.7 km/h 37% 0.0 mm FEW
13:55 19.4 °C 4.3 °C 1013.5 hPa West 25.6 km/h 38.9 km/h 37% 0.0 mm FEW
14:00 19.7 °C 4.2 °C 1013.5 hPa WNW 27.4 km/h 43.4 km/h 36% 0.0 mm FEW
14:05 19.7 °C 4.6 °C 1013.3 hPa WNW 27.0 km/h 38.9 km/h 37% 0.0 mm FEW
14:10 19.7 °C 4.2 °C 1013.3 hPa NW 27.0 km/h 35.2 km/h 36% 0.0 mm FEW
14:15 19.8 °C 4.3 °C 1013.3 hPa NNW 27.0 km/h 44.4 km/h 36% 0.0 mm FEW
14:20 19.9 °C 4.4 °C 1013.3 hPa NNE 22.5 km/h 27.8 km/h 36% 0.0 mm FEW
14:25 19.9 °C 4.4 °C 1013.3 hPa NW 22.5 km/h 42.6 km/h 36% 0.0 mm FEW
14:30 19.9 °C 4.4 °C 1013.3 hPa NNW 23.3 km/h 37.0 km/h 36% 0.0 mm FEW
14:35 20.0 °C 4.4 °C 1013.1 hPa WSW 23.3 km/h 24.1 km/h 36% 0.0 mm FEW
14:40 19.9 °C 4.4 °C 1013.1 hPa WNW 20.9 km/h 38.6 km/h 36% 0.0 mm FEW
14:45 19.9 °C 4.8 °C 1013.1 hPa WSW 20.9 km/h 24.1 km/h 37% 0.0 mm FEW
14:50 19.9 °C 4.8 °C 1013.1 hPa WNW 20.9 km/h 41.8 km/h 37% 0.0 mm FEW
14:55 19.8 °C 4.7 °C 1013.1 hPa WNW 19.8 km/h 25.1 km/h 37% 0.0 mm FEW
15:00 19.8 °C 4.7 °C 1013.1 hPa WNW 20.9 km/h 40.2 km/h 37% 0.0 mm FEW
15:05 19.7 °C 4.6 °C 1013.2 hPa WSW 20.1 km/h 35.2 km/h 37% 0.0 mm FEW
15:10 19.7 °C 4.6 °C 1013.2 hPa NW 20.9 km/h 33.3 km/h 37% 0.0 mm FEW
15:15 19.7 °C 5.0 °C 1013.2 hPa WSW 20.9 km/h 37.0 km/h 38% 0.0 mm FEW
15:20 19.6 °C 4.9 °C 1013.1 hPa WNW 22.5 km/h 41.8 km/h 38% 0.0 mm FEW
15:25 19.6 °C 4.5 °C 1013.1 hPa West 22.5 km/h 42.6 km/h 37% 0.0 mm FEW
15:30 19.7 °C 5.0 °C 1013.1 hPa WNW 24.5 km/h 35.2 km/h 38% 0.0 mm FEW
15:35 19.7 °C 5.0 °C 1013.0 hPa WNW 24.5 km/h 38.9 km/h 38% 0.0 mm FEW
15:40 19.7 °C 5.0 °C 1013.0 hPa NW 24.5 km/h 29.6 km/h 38% 0.0 mm FEW
15:45 19.8 °C 5.1 °C 1013.0 hPa NW 24.5 km/h 33.3 km/h 38% 0.0 mm FEW
15:50 19.8 °C 5.1 °C 1013.1 hPa WNW 20.9 km/h 37.0 km/h 38% 0.0 mm FEW
15:55 19.8 °C 5.1 °C 1013.1 hPa WNW 20.9 km/h 24.1 km/h 38% 0.0 mm FEW
16:00 19.9 °C 5.2 °C 1013.1 hPa WNW 22.5 km/h 40.2 km/h 38% 0.0 mm FEW
16:05 19.7 °C 5.0 °C 1013.1 hPa West 21.7 km/h 29.6 km/h 38% 0.0 mm FEW
16:10 19.7 °C 5.0 °C 1013.1 hPa West 22.5 km/h 33.3 km/h 38% 0.0 mm FEW
16:15 19.8 °C 5.1 °C 1013.1 hPa WNW 22.5 km/h 28.6 km/h 38% 0.0 mm FEW
16:20 19.9 °C 5.2 °C 1013.2 hPa WNW 19.0 km/h 33.3 km/h 38% 0.0 mm FEW
16:25 19.8 °C 5.1 °C 1013.2 hPa West 19.0 km/h 27.8 km/h 38% 0.0 mm FEW
16:30 19.7 °C 5.0 °C 1013.2 hPa West 19.8 km/h 34.3 km/h 38% 0.0 mm FEW
16:35 19.7 °C 5.0 °C 1013.2 hPa WNW 19.8 km/h 27.8 km/h 38% 0.0 mm FEW
16:40 19.7 °C 5.0 °C 1013.2 hPa WNW 21.7 km/h 36.2 km/h 38% 0.0 mm FEW
16:45 19.8 °C 5.1 °C 1013.2 hPa West 21.7 km/h 16.7 km/h 38% 0.0 mm FEW
16:50 19.9 °C 5.2 °C 1013.3 hPa WNW 18.0 km/h 24.1 km/h 38% 0.0 mm CLR
16:55 19.9 °C 5.2 °C 1013.3 hPa NW 18.0 km/h 22.2 km/h 38% 0.0 mm CLR
17:00 20.1 °C 4.9 °C 1013.3 hPa West 14.5 km/h 35.4 km/h 37% 0.0 mm CLR
17:05 20.1 °C 4.9 °C 1013.1 hPa WSW 15.6 km/h 20.4 km/h 37% 0.0 mm CLR
17:10 20.1 °C 4.9 °C 1013.1 hPa West 16.1 km/h 29.0 km/h 37% 0.0 mm CLR
17:15 20.1 °C 4.9 °C 1013.1 hPa WSW 16.1 km/h 20.4 km/h 37% 0.0 mm CLR
17:20 20.1 °C 4.9 °C 1013.1 hPa West 13.0 km/h 24.1 km/h 37% 0.0 mm CLR
17:25 20.1 °C 4.9 °C 1013.1 hPa SW 13.0 km/h 14.8 km/h 37% 0.0 mm CLR
17:30 20.1 °C 4.9 °C 1013.1 hPa West 12.9 km/h 29.0 km/h 37% 0.0 mm CLR
17:35 20.0 °C 4.8 °C 1013.2 hPa West 12.2 km/h 24.1 km/h 37% 0.0 mm CLR
17:40 20.0 °C 4.8 °C 1013.2 hPa West 12.2 km/h 27.8 km/h 37% 0.0 mm CLR
17:45 19.9 °C 4.8 °C 1013.2 hPa West 12.2 km/h 21.7 km/h 37% 0.0 mm CLR
17:50 19.9 °C 4.8 °C 1013.2 hPa WNW 15.6 km/h 24.1 km/h 37% 0.0 mm CLR
17:55 19.8 °C 4.7 °C 1013.2 hPa WNW 15.6 km/h 29.6 km/h 37% 0.0 mm CLR
18:00 19.7 °C 4.6 °C 1013.2 hPa West 19.3 km/h 29.0 km/h 37% 0.0 mm CLR
18:05 19.6 °C 4.5 °C 1013.2 hPa NW 18.3 km/h 20.4 km/h 37% 0.0 mm CLR
18:10 19.6 °C 4.9 °C 1013.2 hPa WSW 14.0 km/h 16.7 km/h 38% 0.0 mm CLR
18:15 19.4 °C 4.7 °C 1013.2 hPa WSW 14.0 km/h 24.1 km/h 38% 0.0 mm CLR
18:20 19.4 °C 4.7 °C 1013.3 hPa West 11.9 km/h 13.0 km/h 38% 0.0 mm CLR
18:25 19.3 °C 4.6 °C 1013.3 hPa WSW 11.9 km/h 14.8 km/h 38% 0.0 mm CLR
18:30 19.2 °C 4.5 °C 1013.3 hPa West 9.5 km/h 14.8 km/h 38% 0.0 mm CLR
18:35 19.2 °C 4.5 °C 1013.4 hPa WNW 9.5 km/h 7.4 km/h 38% 0.0 mm CLR
18:40 19.0 °C 4.7 °C 1013.4 hPa West 8.7 km/h 11.1 km/h 39% 0.0 mm CLR
18:45 18.9 °C 4.6 °C 1013.4 hPa WSW 8.7 km/h 16.7 km/h 39% 0.0 mm FEW
18:50 18.9 °C 4.6 °C 1013.6 hPa West 10.0 km/h 20.4 km/h 39% 0.0 mm FEW
18:55 18.8 °C 4.6 °C 1013.6 hPa WNW 10.0 km/h 13.0 km/h 39% 0.0 mm FEW
19:00 18.8 °C 4.6 °C 1013.6 hPa West 11.3 km/h 24.1 km/h 39% 0.0 mm FEW
19:05 18.8 °C 4.6 °C 1013.7 hPa WSW 10.3 km/h 13.0 km/h 39% 0.0 mm FEW
19:10 18.8 °C 4.6 °C 1013.7 hPa West 10.0 km/h 22.2 km/h 39% 0.0 mm FEW
19:15 18.8 °C 4.6 °C 1013.7 hPa West 10.0 km/h 24.1 km/h 39% 0.0 mm FEW
19:20 18.9 °C 4.6 °C 1013.9 hPa WSW 11.1 km/h 16.7 km/h 39% 0.0 mm FEW
19:25 19.0 °C 4.7 °C 1013.9 hPa SW 11.1 km/h 18.5 km/h 39% 0.0 mm FEW
19:30 18.7 °C 4.8 °C 1013.9 hPa SW 10.3 km/h 14.8 km/h 40% 0.0 mm FEW
19:35 18.6 °C 4.7 °C 1013.9 hPa SW 11.3 km/h 20.9 km/h 40% 0.0 mm FEW
19:40 18.4 °C 4.6 °C 1013.9 hPa WNW 11.9 km/h 13.0 km/h 40% 0.0 mm FEW
19:45 18.2 °C 4.7 °C 1013.9 hPa WSW 11.9 km/h 14.8 km/h 41% 0.0 mm FEW
19:50 18.2 °C 4.7 °C 1014.1 hPa WSW 10.0 km/h 15.6 km/h 41% 0.0 mm CLR
19:55 18.2 °C 4.7 °C 1014.1 hPa SSE 10.0 km/h 9.3 km/h 41% 0.0 mm CLR
20:00 18.2 °C 4.7 °C 1014.1 hPa SSW 9.7 km/h 14.5 km/h 41% 0.0 mm CLR
20:05 17.9 °C 4.8 °C 1014.4 hPa SW 8.7 km/h 13.0 km/h 42% 0.0 mm CLR
20:10 17.9 °C 4.8 °C 1014.4 hPa SSW 8.7 km/h 16.7 km/h 42% 0.0 mm CLR
20:15 17.9 °C 4.8 °C 1014.4 hPa WSW 8.7 km/h 14.8 km/h 42% 0.0 mm CLR
20:20 17.9 °C 4.8 °C 1014.5 hPa SW 11.1 km/h 14.8 km/h 42% 0.0 mm CLR
20:25 17.8 °C 4.7 °C 1014.5 hPa WSW 11.1 km/h 11.1 km/h 42% 0.0 mm CLR
20:30 17.8 °C 4.7 °C 1014.5 hPa SSW 9.5 km/h 11.1 km/h 42% 0.0 mm CLR
20:35 17.8 °C 4.7 °C 1014.7 hPa SW 9.5 km/h 11.1 km/h 42% 0.0 mm CLR
20:40 17.8 °C 4.7 °C 1014.7 hPa WSW 8.7 km/h 14.8 km/h 42% 0.0 mm CLR
20:45 17.8 °C 4.7 °C 1014.7 hPa SW 9.7 km/h 14.5 km/h 42% 0.0 mm CLR
20:50 17.7 °C 4.6 °C 1014.6 hPa SW 8.7 km/h 14.8 km/h 42% 0.0 mm CLR
20:55 17.7 °C 4.6 °C 1014.6 hPa WSW 8.7 km/h 10.0 km/h 42% 0.0 mm CLR
21:00 17.6 °C 4.5 °C 1014.6 hPa SW 8.0 km/h 12.9 km/h 42% 0.0 mm CLR
21:05 17.6 °C 4.9 °C 1014.9 hPa South 8.4 km/h 9.3 km/h 43% 0.0 mm CLR
21:10 17.2 °C 4.8 °C 1014.9 hPa South 7.6 km/h 13.0 km/h 44% 0.0 mm CLR
21:15 16.8 °C 4.8 °C 1014.9 hPa SSW 7.6 km/h 16.7 km/h 45% 0.0 mm CLR
21:20 16.7 °C 4.7 °C 1015.0 hPa SW 10.3 km/h 14.8 km/h 45% 0.0 mm CLR
21:25 16.7 °C 4.7 °C 1015.0 hPa SW 10.3 km/h 13.0 km/h 45% 0.0 mm CLR
21:30 16.6 °C 4.6 °C 1015.0 hPa WSW 9.5 km/h 13.0 km/h 45% 0.0 mm CLR
21:35 16.6 °C 4.9 °C 1014.9 hPa SW 9.5 km/h 11.1 km/h 46% 0.0 mm CLR
21:40 16.6 °C 4.6 °C 1014.9 hPa SW 8.4 km/h 13.0 km/h 45% 0.0 mm CLR
21:45 16.6 °C 4.9 °C 1014.9 hPa SW 8.4 km/h 11.1 km/h 46% 0.0 mm CLR
21:50 16.6 °C 4.6 °C 1015.1 hPa SSW 8.4 km/h 14.8 km/h 45% 0.0 mm CLR
21:55 16.5 °C 4.8 °C 1015.1 hPa SW 8.4 km/h 14.8 km/h 46% 0.0 mm CLR
22:00 16.4 °C 4.8 °C 1015.1 hPa SSW 8.0 km/h 11.3 km/h 46% 0.0 mm CLR
22:05 16.3 °C 4.7 °C 1015.1 hPa SW 8.4 km/h 9.5 km/h 46% 0.0 mm CLR
22:10 16.2 °C 4.6 °C 1015.1 hPa SW 6.9 km/h 14.8 km/h 46% 0.0 mm CLR
22:15 16.2 °C 4.6 °C 1015.1 hPa SW 6.9 km/h 13.0 km/h 46% 0.0 mm CLR
22:20 16.2 °C 4.6 °C 1015.3 hPa SW 8.7 km/h 10.0 km/h 46% 0.0 mm CLR
22:25 16.2 °C 4.6 °C 1015.3 hPa WSW 8.7 km/h 8.7 km/h 46% 0.0 mm CLR
22:30 16.3 °C 4.7 °C 1015.3 hPa SW 5.8 km/h 11.1 km/h 46% 0.0 mm CLR
22:35 16.2 °C 4.6 °C 1015.4 hPa South 5.8 km/h 11.1 km/h 46% 0.0 mm CLR
22:40 16.0 °C 4.7 °C 1015.4 hPa SSW 6.4 km/h 13.0 km/h 47% 0.0 mm CLR
22:45 15.8 °C 4.5 °C 1015.4 hPa SSW 6.4 km/h 13.0 km/h 47% 0.0 mm CLR
22:50 15.8 °C 4.5 °C 1015.4 hPa SW 10.0 km/h 11.1 km/h 47% 0.0 mm CLR
22:55 15.9 °C 4.6 °C 1015.4 hPa SW 10.0 km/h 14.8 km/h 47% 0.0 mm CLR
23:00 16.1 °C 4.4 °C 1015.4 hPa SW 11.3 km/h 19.3 km/h 46% 0.0 mm CLR
23:05 16.3 °C 4.3 °C 1015.4 hPa WSW 10.3 km/h 14.8 km/h 45% 0.0 mm CLR
23:10 16.4 °C 4.4 °C 1015.4 hPa WSW 10.0 km/h 11.1 km/h 45% 0.0 mm CLR
23:15 16.2 °C 4.2 °C 1015.4 hPa WSW 10.0 km/h 14.8 km/h 45% 0.0 mm CLR
23:20 16.2 °C 4.2 °C 1015.4 hPa West 8.7 km/h 16.7 km/h 45% 0.0 mm CLR
23:25 16.2 °C 4.2 °C 1015.4 hPa WNW 8.7 km/h 14.8 km/h 45% 0.0 mm CLR
23:30 16.3 °C 4.0 °C 1015.4 hPa WSW 9.5 km/h 11.1 km/h 44% 0.0 mm CLR
23:35 16.3 °C 4.0 °C 1015.5 hPa WSW 9.5 km/h 14.8 km/h 44% 0.0 mm CLR
23:40 16.3 °C 4.0 °C 1015.5 hPa WSW 7.6 km/h 9.3 km/h 44% 0.0 mm CLR
23:45 16.2 °C 3.9 °C 1015.5 hPa SW 7.6 km/h 5.8 km/h 44% 0.0 mm CLR
23:50 16.1 °C 4.2 °C 1015.6 hPa SSW 5.8 km/h 8.4 km/h 45% 0.0 mm CLR
23:55 15.9 °C 3.9 °C 1015.6 hPa SW 5.8 km/h 11.1 km/h 45% 0.0 mm CLR
Murcia-Puente Tocinos, España
Compliments of Weather Underground - 2.75 mb

La estación de MeteoMurcia.com, publica sus datos en los siguientes proyectos:

Weather Underground PWS IMURCIAP2 Meteoclimatic www.awekas.at

W3Counter
Web Analytics